Location: Blackwater Beach
(38.5801°N, 75.1577°W)
Time: 02:54:00
(UTC+00:00)

Cosmos 2297 Rocket - Pass Details

Date: 20 May 2026
Orbit: 838 x 842 km, 71.0° (Epoch: 9 June)

Event Time Altitude Azimuth Distance (km) Brightness Sun altitude
Exits shadow 05:12:22 14° 281° (WNW) 2,196 4.4 -31.3°
Maximum altitude 05:14:34 17° 308° (NW) 2,016 4.5 -31.3°
Drops below altitude 10° 05:18:08 10° 348° (NNW) 2,461 5.4 -31.2°
Sets 05:21:32 0° 8° (N) 3,400 6.5 -31.2°
